User: anonymous   Login
Location: Caltech
(34.1382°N, 118.1253°W)
Time: 23:38:51
(UTC-08:00)
Language:

IRS-1A Rocket - Orbit

View from above orbital plane
View from above orbital plane
View from above satellite
View from above satellite

Ground track
Ground track

The orbit data is extracted from the following two-line orbital elements,

1 18961U 88021B   17056.08691310  .00000384  00000-0  28570-3 0  9991
2 18961  99.3241  61.6778 0054290 173.4807 228.8504 14.00652882479724
Epoch (UTC): 25 February 2017 02:05:09
Eccentricity: 0.0054290
inclination: 99.3241°
perigee height: 852 km
apogee height: 931 km
right ascension of ascending node: 61.6778°
argument of perigee: 173.4807°
revolutions per day: 14.00652882
mean anomaly at epoch: 228.8504°
orbit number at epoch: 47972

The dashed part of the orbit path shows where the satellite is in the earth's shadow,  

DLR